This is the latest recevied weather packets stored in our database for station/object VA7NIC-10. If no packets are shown the sender has not sent any weather packets the latest 10 day(s).
| Time | Temp. | Humidity | Pressure | Rain* | Wind** | Luminosity | Snow |
|---|---|---|---|---|---|---|---|
| 1778169122 | 12.22° C | 84% | 1019.6 hPa | 0 mm | - | - | - |
| 1778168222 | 11.11° C | 87% | 1019.7 hPa | 0 mm | - | - | - |
| 1778167322 | 10.56° C | 88% | 1019.7 hPa | 0 mm | - | - | - |
| 1778166422 | 10.56° C | 88% | 1019.6 hPa | 0 mm | - | - | - |
| 1778165521 | 10° C | 88% | 1019.6 hPa | 0 mm | - | - | - |
| 1778164621 | 9.44° C | 88% | 1019.6 hPa | 0 mm | - | - | - |
| 1778163721 | 9.44° C | 88% | 1019.6 hPa | 0 mm | - | - | - |
| 1778162821 | 9.44° C | 88% | 1019.6 hPa | 0 mm | - | - | - |
| 1778161921 | 9.44° C | 88% | 1019.5 hPa | 0 mm | - | - | - |
| 1778161021 | 9.44° C | 88% | 1019.4 hPa | 0 mm | - | - | - |
| 1778160121 | 10° C | 87% | 1019.3 hPa | 0 mm | - | - | - |
| 1778159222 | 10° C | 87% | 1019.2 hPa | 0 mm | - | - | - |
| 1778158322 | 10.56° C | 86% | 1019.2 hPa | 0 mm | - | - | - |
| 1778157422 | 10.56° C | 86% | 1019.2 hPa | 0 mm | - | - | - |
| 1778156522 | 11.11° C | 85% | 1019.3 hPa | 0 mm | - | - | - |
| 1778155622 | 11.67° C | 85% | 1019.4 hPa | 0 mm | - | - | - |
| 1778154722 | 11.67° C | 85% | 1019.4 hPa | 0 mm | - | - | - |
| 1778153822 | 11.67° C | 84% | 1019.5 hPa | 0 mm | - | - | - |
| 1778152922 | 11.67° C | 84% | 1019.5 hPa | 0 mm | - | - | - |
| 1778152022 | 11.67° C | 84% | 1019.5 hPa | 0 mm | - | - | - |
| 1778151122 | 11.67° C | 84% | 1019.7 hPa | 0 mm | - | - | - |
| 1778150222 | 12.22° C | 84% | 1019.6 hPa | 0 mm | - | - | - |
| 1778149321 | 12.22° C | 83% | 1019.5 hPa | 0 mm | - | - | - |
| 1778148421 | 12.22° C | 84% | 1019.4 hPa | 0 mm | - | - | - |
| 1778147521 | 12.22° C | 83% | 1019.3 hPa | 0 mm | - | - | - |
* Rain latest hour (hover to see other rain measurements)
** Current wind speed in m/s (hover to see current wind gust speed)